Temperature
16 16 16 16 15 15 15 15 16 15 15 15 15 15 15 15 15 15 15 15 15 14 14 14 14 14 14 14 13 13 13 13 13 12 12 12 12 12 11 11 11 11 11
16 16 15 15 15 15 15 15 15 15 15 15 15 15 15 15 15 15 15 15 15 14 14 14 14 14 14 13 13 13 13 13 13 13 12 12 12 11 11 11 11 11 11
15 15 15 15 15 15 15 15 15 15 15 15 15 15 15 15 15 15 15 15 15 14 14 14 14 14 14 14 13 13 13 13 13 13 12 12 11 11 11 11 11 10 10
15 15 15 15 15 15 15 15 15 15 15 15 15 15 15 15 15 15 14 14 14 14 14 14 14 14 14 13 13 13 13 13 12 12 12 12 11 11 11 11 10 10 10
15 15 15 15 15 15 15 15 15 15 15 15 15 15 15 15 15 14 14 14 14 14 14 14 14 13 13 13 13 13 13 13 12 12 12 12 11 11 11 10 10 10 10
15 15 15 15 15 15 15 15 15 15 15 15 15 15 15 15 14 14 14 14 14 14 14 14 13 13 13 13 13 13 12 12 12 12 12 12 11 11 11 10 10 10 10
15 15 15 15 15 15 15 15 15 15 15 15 15 14 14 14 14 14 14 14 14 14 14 13 13 13 13 13 13 12 12 12 12 12 12 12 11 11 11 10 10 10 9
15 15 15 15 15 15 15 15 15 14 14 14 14 14 14 14 14 14 14 14 14 14 13 13 13 13 13 12 12 12 12 12 12 12 11 11 11 10 10 10 10 9 9
15 15 15 15 15 15 14 14 14 14 14 14 14 14 14 14 14 14 14 13 13 13 13 13 13 13 12 12 12 12 12 12 11 11 11 11 10 10 10 10 9 9 9
15 15 15 15 15 14 14 14 14 14 14 14 14 14 14 14 14 13 13 13 13 13 13 13 12 12 12 12 12 12 12 11 11 11 11 10 10 10 10 9 9 9 9
15 15 15 15 14 14 14 14 14 14 14 13 13 13 13 13 13 13 13 13 13 13 13 12 12 12 12 11 11 11 11 11 11 10 10 10 10 10 9 9 9 8 8
15 15 15 14 14 14 14 14 13 13 13 13 13 13 13 13 13 13 13 12 12 12 12 12 12 12 11 11 11 11 11 10 10 10 10 10 10 9 9 9 8 8 8
14 14 14 14 14 14 13 13 13 13 13 13 13 13 13 13 12 12 12 12 12 12 12 12 11 11 11 11 11 10 10 10 10 10 10 9 9 9 9 8 8 8 8
14 14 14 14 14 13 13 13 13 13 12 12 12 12 12 12 12 12 12 12 12 12 11 11 11 10 10 10 10 10 10 10 10 9 9 9 9 8 8 8 8 8 7
14 13 13 13 13 13 13 13 13 13 12 12 12 12 12 12 12 12 12 12 12 11 11 11 11 10 10 10 10 10 9 9 9 9 9 9 8 8 8 8 7 7 7
13 13 13 13 13 13 12 12 12 12 12 12 12 12 12 12 12 12 11 11 11 11 11 10 10 10 10 10 9 9 9 9 9 9 8 8 8 8 7 7 7 7 6
13 13 13 13 12 12 12 12 12 11 11 11 11 11 11 11 11 11 11 11 11 10 10 10 10 10 10 9 9 9 9 9 8 8 8 8 7 7 7 7 6 6 6
13 13 12 12 12 12 12 12 11 11 11 11 11 11 11 11 11 11 10 10 10 10 10 10 9 9 9 9 9 8 8 8 8 8 7 7 7 7 6 6 6 6 5
12 12 12 12 12 12 12 11 11 11 11 11 11 11 10 10 10 10 10 10 10 10 9 9 9 9 9 8 8 8 8 7 7 7 7 7 7 6 6 6 5 5 5
12 12 12 12 11 11 11 11 11 11 11 10 10 10 10 10 10 10 9 9 9 9 9 9 9 9 8 8 8 8 7 7 7 7 7 6 6 6 6 5 5 5 4
12 12 11 11 11 11 11 11 11 10 10 10 10 10 10 9 9 9 9 9 9 9 9 9 8 8 8 8 8 7 7 7 7 6 6 6 6 5 5 5 4 4 4
11 11 11 11 11 11 10 10 10 10 10 10 9 9 9 9 9 9 9 9 9 9 9 8 8 8 8 8 7 7 7 7 6 6 6 6 5 5 5 4 4 4 3
11 11 10 10 10 10 10 10 10 10 9 9 9 9 9 8 8 8 8 8 8 8 8 8 8 7 7 7 7 7 6 6 6 6 6 5 5 5 4 4 4 3 3
10 10 10 10 10 10 10 9 9 9 9 9 9 8 8 8 8 8 8 8 8 7 7 7 7 7 7 7 6 6 6 6 6 5 5 5 5 4 4 4 3 3 3
10 10 9 9 9 9 9 9 9 9 8 8 8 8 8 8 8 8 7 7 7 7 7 7 7 6 6 6 6 6 6 6 5 5 5 4 4 4 4 3 3 3 2
9 9 9 9 9 9 9 8 8 8 8 8 8 8 7 7 7 7 7 7 6 6 6 6 6 6 6 6 5 5 5 5 5 5 4 4 4 4 3 3 3 2 2
Wind_Speed
3 2 2 2 2 2 2 2 3 3 3 3 3 3 3 3 3 3 3 3 3 2 2 3 2 2 2 2 2 2 3 4 3 1 1 1 2 2 2 3 4 4 4
3 2 2 2 2 2 2 2 2 3 3 3 3 3 3 3 3 4 3 3 3 3 2 3 2 2 3 2 3 3 2 2 4 3 1 1 1 1 2 2 2 2 3
3 3 2 2 2 2 3 2 2 3 2 3 3 4 4 4 3 4 4 4 3 3 3 3 2 3 2 2 2 3 3 3 3 3 1 0 1 1 2 2 3 3 2
4 3 3 3 3 3 3 2 2 2 3 3 3 3 4 4 4 4 4 4 3 2 2 3 3 3 3 3 3 3 3 4 3 3 2 1 0 1 2 1 1 1 1
4 4 4 4 3 3 2 2 2 2 3 3 3 3 3 3 4 5 5 5 4 3 2 2 3 4 5 4 3 3 4 4 3 3 2 1 0 0 1 1 1 0 1
4 5 4 3 3 3 3 3 2 2 2 3 3 3 3 3 6 8 7 5 4 4 3 2 2 3 4 5 5 6 7 6 5 4 2 2 2 2 2 2 1 1 1
4 4 4 4 4 4 4 3 3 3 2 2 3 3 3 3 6 7 8 6 5 4 4 3 2 3 4 3 4 4 4 6 7 6 5 4 4 4 3 2 3 3 2
4 4 4 4 4 4 4 4 3 3 2 2 3 3 3 4 6 8 8 5 4 4 4 4 4 3 4 4 3 3 1 1 3 4 5 4 4 4 4 4 4 3 0
5 5 5 5 5 4 5 5 4 3 3 2 2 3 3 3 6 8 8 4 3 2 3 3 4 4 6 7 5 4 2 1 2 4 4 3 3 4 5 3 3 2 1
6 6 6 5 6 6 6 5 3 3 3 3 2 3 4 4 6 8 8 4 3 2 1 2 5 5 6 7 5 5 4 3 2 2 1 1 1 1 3 4 4 3 2
6 5 5 5 6 6 5 4 4 4 3 3 2 2 3 4 5 7 8 5 4 3 2 2 3 5 6 7 6 5 6 5 3 3 1 0 1 1 0 1 3 3 3
4 4 3 4 4 3 4 3 4 4 4 3 2 2 2 3 4 5 7 8 6 4 4 3 3 5 5 5 5 5 6 5 2 2 1 1 1 1 1 1 1 2 3
3 3 3 3 3 3 4 4 3 4 4 3 3 3 3 2 3 5 7 8 7 5 4 4 4 3 3 3 4 5 4 3 3 2 2 3 2 2 1 1 1 1 1
4 4 3 3 3 3 3 4 4 4 4 4 4 4 3 2 3 3 3 4 5 4 3 3 3 3 2 2 2 2 2 3 4 4 3 2 1 1 1 1 1 0 0
4 3 3 3 3 3 3 3 4 5 6 6 6 6 5 5 6 7 6 5 5 5 4 2 2 1 1 1 1 1 1 2 2 2 2 2 1 1 1 1 1 1 1
4 3 3 3 2 3 3 2 2 4 5 6 7 6 6 7 7 7 8 8 8 8 6 3 3 3 3 3 3 2 2 3 3 3 3 2 3 3 2 1 1 2 2
5 4 3 3 3 3 3 4 2 2 2 3 4 5 5 5 6 7 7 8 8 8 5 4 5 5 4 4 3 3 3 3 3 3 3 3 3 2 2 2 2 2 2
4 4 4 4 4 4 4 4 4 3 2 2 3 5 5 5 5 6 7 6 4 4 4 5 5 5 4 4 4 3 3 2 2 3 3 3 3 3 3 3 3 3 3
4 4 4 3 3 3 3 3 4 4 4 3 2 2 4 4 4 5 7 5 6 6 5 5 5 4 4 4 4 4 3 4 4 3 3 4 4 4 4 4 4 4 3
3 4 4 3 3 3 3 3 4 4 4 4 4 4 2 2 2 3 4 4 5 6 5 5 5 5 5 4 4 4 4 4 4 4 4 4 4 4 5 5 4 4 4
3 3 3 2 3 4 4 5 5 5 5 5 5 5 6 5 5 5 5 6 6 7 6 6 5 5 5 4 4 5 5 4 4 4 4 4 4 4 4 4 4 4 4
3 3 3 3 3 3 4 4 4 5 5 6 4 4 6 4 5 5 6 6 6 6 6 5 5 5 5 5 5 5 5 5 5 4 4 4 4 4 4 3 4 4 4
3 3 3 3 3 4 3 3 4 4 5 5 5 4 4 5 5 5 6 5 5 5 5 6 6 5 5 6 6 6 6 6 6 5 5 4 4 4 4 4 5 4 4
3 3 3 3 3 3 4 4 4 4 4 5 5 4 5 5 5 5 5 5 5 5 5 6 7 7 7 7 6 7 7 7 7 6 7 6 5 5 5 4 5 5 5
3 3 4 4 4 4 4 4 4 4 4 4 5 4 4 5 5 5 4 4 5 5 5 6 6 7 8 8 7 7 8 8 8 7 6 6 6 5 5 5 5 4 4
3 3 3 3 3 4 4 4 4 4 4 4 4 4 4 5 5 4 4 4 4 4 5 5 6 7 7 7 8 8 8 8 8 8 7 5 5 5 5 5 6 5 5
Wind_Direction
196 196 187 198 189 165 174 199 195 188 179 170 172 168 161 157 151 144 150 139 128 116 106 112 105 92 85 78 98 108 115 127 145 236 345 13 74 78 73 96 94 85 78
199 190 197 197 180 166 182 213 191 172 175 167 160 159 159 156 149 146 148 137 138 139 138 121 117 102 86 87 100 104 112 123 141 150 30 29 46 72 93 89 72 78 87
193 190 191 192 192 198 193 195 189 168 155 152 145 153 162 156 148 150 150 146 144 147 145 142 147 125 113 104 109 114 116 110 109 131 139 35 30 44 68 55 50 40 72
192 190 192 206 210 206 191 183 184 168 155 160 160 168 171 160 152 150 146 141 138 138 143 151 154 152 159 151 137 140 130 115 109 111 109 70 40 8 82 94 44 36 42
190 200 211 211 203 192 179 179 176 162 170 163 157 162 163 160 163 157 151 146 141 138 137 147 155 150 153 153 148 153 144 135 127 121 123 97 54 100 207 210 178 160 17
195 210 211 192 186 187 187 174 162 151 159 150 152 158 164 177 166 162 154 151 151 150 153 159 149 134 132 130 133 145 152 154 160 154 155 165 211 213 204 173 158 132 296
202 208 201 190 190 198 189 165 170 174 160 162 172 165 177 183 164 157 159 153 155 164 170 168 161 152 140 124 118 119 133 153 164 165 170 196 202 204 172 164 172 173 208
204 208 205 196 200 198 182 181 189 182 174 186 188 187 186 189 170 161 156 153 156 173 176 174 171 178 167 156 143 131 143 172 176 170 185 199 193 183 179 184 188 168 89
211 217 212 203 199 194 192 196 196 181 188 199 194 184 184 195 174 167 154 142 151 184 194 179 178 186 183 168 154 159 178 228 150 164 170 169 175 175 157 125 125 137 231
221 223 216 205 200 201 203 199 195 184 194 193 203 201 195 202 187 179 165 154 158 179 205 203 189 188 188 175 172 173 185 214 182 136 134 139 88 119 154 162 171 170 183
224 219 210 205 203 205 200 196 187 185 180 187 202 223 209 204 194 185 175 169 177 181 199 223 217 190 187 178 176 186 191 186 177 164 163 145 55 28 20 170 177 177 184
211 203 204 202 199 198 186 189 179 172 173 188 196 231 240 216 197 191 183 182 177 180 204 215 204 184 187 185 181 182 178 164 154 148 154 196 229 253 256 220 196 192 189
181 190 196 193 195 185 179 179 172 172 178 194 199 215 240 236 209 194 190 188 183 188 198 187 186 183 177 179 173 171 165 158 157 169 202 229 235 235 190 76 38 69 57
180 193 196 192 197 193 186 184 181 185 191 199 208 219 230 227 213 204 194 190 186 187 188 170 162 160 162 163 164 176 177 178 181 199 211 224 207 154 189 189 203 197 50
188 196 201 197 194 196 192 197 197 204 200 202 212 213 210 222 222 197 182 186 188 184 158 138 135 133 170 214 231 228 207 190 206 214 206 208 205 197 221 192 158 145 174
189 196 200 201 200 198 189 208 232 211 212 211 211 212 223 224 213 198 191 189 179 162 149 164 187 198 206 216 222 234 228 218 217 209 207 210 212 214 221 207 167 181 214
194 200 201 200 198 200 196 193 218 277 245 211 209 214 222 225 214 204 194 189 180 162 169 192 204 210 214 218 224 225 231 226 207 200 206 211 211 212 209 215 212 215 232
194 200 199 205 203 205 208 207 202 204 230 264 243 221 220 219 216 204 182 165 179 182 200 207 212 211 209 213 222 229 229 215 202 206 210 213 211 209 215 223 222 222 230
193 200 202 207 203 204 210 210 209 209 214 233 263 253 226 219 213 203 174 182 195 204 209 213 213 210 211 213 218 220 220 220 215 214 220 221 217 211 219 224 224 226 224
200 206 198 201 205 209 211 212 213 215 217 218 225 235 216 185 206 213 209 211 210 213 212 212 214 213 211 212 215 215 217 222 223 224 227 227 224 218 221 221 221 222 225
199 203 201 203 207 212 214 215 215 214 219 225 231 231 208 203 212 215 215 216 215 216 215 214 212 212 213 214 217 218 218 224 226 228 228 227 223 225 226 223 221 220 222
195 197 201 212 216 219 222 220 217 218 221 227 237 234 219 216 218 220 222 224 220 216 210 205 209 211 209 208 212 216 220 225 227 227 230 227 222 224 223 221 221 219 216
198 202 207 219 223 225 227 225 221 223 226 226 224 223 219 220 222 223 224 222 216 214 207 201 204 209 211 209 207 206 218 227 228 225 224 224 219 219 218 219 218 216 219
204 207 210 216 224 224 223 227 225 225 224 224 223 222 221 222 222 223 222 216 212 211 207 204 204 208 211 212 211 212 218 223 225 220 218 217 219 219 216 219 220 220 221
208 213 214 215 219 223 225 225 223 226 230 230 226 225 224 225 226 224 220 215 213 213 213 209 206 209 214 218 218 220 224 227 228 224 213 210 215 216 212 214 218 221 223
214 220 222 219 218 220 222 223 223 229 234 232 226 223 222 224 224 222 217 213 215 217 217 212 212 214 218 221 224 226 226 227 228 223 214 207 209 215 211 213 214 216 219
Height
1548 1548 1548 1548 1549 1549 1549 1549 1549 1550 1550 1550 1551 1551 1551 1552 1552 1552 1553 1553 1553 1553 1553 1553 1553 1553 1553 1553 1554 1554 1554 1554 1554 1554 1554 1554 1554 1554 1553 1552 1552 1551 1550
1546 1546 1546 1547 1547 1547 1547 1547 1548 1548 1548 1549 1549 1550 1550 1551 1551 1551 1552 1552 1552 1552 1552 1552 1552 1552 1552 1552 1552 1553 1553 1553 1553 1553 1553 1553 1553 1553 1552 1552 1551 1550 1549
1544 1544 1544 1544 1545 1545 1545 1545 1546 1546 1547 1547 1548 1549 1549 1549 1550 1550 1550 1551 1551 1551 1551 1551 1551 1551 1551 1551 1551 1551 1551 1552 1552 1552 1552 1552 1551 1551 1551 1550 1549 1549 1548
1542 1542 1542 1542 1542 1542 1543 1543 1544 1544 1545 1546 1546 1547 1547 1548 1548 1549 1549 1549 1549 1550 1550 1550 1550 1550 1550 1550 1549 1550 1550 1550 1550 1550 1550 1550 1550 1549 1549 1548 1548 1547 1546
1539 1539 1539 1540 1540 1540 1541 1541 1541 1542 1543 1544 1544 1545 1546 1546 1546 1547 1547 1547 1548 1548 1548 1548 1548 1548 1548 1548 1548 1548 1548 1548 1548 1548 1548 1547 1548 1547 1547 1547 1546 1545 1544
1536 1536 1537 1537 1538 1538 1538 1538 1539 1540 1540 1541 1542 1543 1543 1544 1544 1545 1545 1546 1546 1546 1546 1546 1546 1546 1546 1546 1546 1546 1546 1546 1546 1546 1545 1545 1545 1545 1545 1544 1544 1543 1542
1534 1534 1534 1535 1535 1536 1536 1536 1537 1537 1538 1539 1539 1540 1541 1541 1542 1542 1543 1543 1543 1544 1544 1544 1544 1544 1544 1544 1544 1544 1544 1544 1544 1544 1543 1543 1543 1543 1542 1542 1541 1541 1540
1531 1531 1532 1532 1532 1533 1533 1534 1534 1535 1536 1536 1537 1538 1538 1539 1540 1540 1540 1541 1541 1541 1541 1542 1541 1541 1541 1541 1541 1541 1541 1541 1541 1541 1541 1541 1541 1541 1540 1540 1539 1539 1538
1529 1529 1529 1529 1529 1530 1530 1531 1532 1532 1533 1533 1534 1535 1535 1536 1537 1537 1538 1538 1538 1538 1539 1539 1539 1539 1539 1539 1538 1538 1538 1538 1538 1538 1538 1538 1538 1538 1537 1537 1536 1536 1535
1525 1525 1526 1527 1527 1527 1527 1528 1529 1530 1530 1531 1531 1532 1532 1533 1533 1534 1535 1535 1535 1535 1536 1536 1536 1536 1536 1536 1536 1536 1535 1535 1536 1535 1535 1535 1535 1535 1534 1534 1533 1533 1531
1522 1523 1523 1523 1524 1524 1525 1525 1526 1526 1527 1527 1528 1528 1529 1530 1530 1531 1531 1531 1532 1532 1532 1532 1533 1533 1533 1533 1533 1533 1533 1533 1533 1533 1532 1532 1532 1531 1531 1531 1530 1530 1529
1519 1519 1519 1520 1520 1521 1522 1522 1523 1523 1523 1524 1524 1525 1525 1526 1526 1527 1528 1528 1528 1528 1528 1529 1529 1530 1530 1530 1530 1530 1530 1530 1529 1529 1529 1528 1528 1528 1528 1528 1527 1526 1526
1516 1516 1516 1517 1517 1517 1518 1518 1519 1520 1520 1520 1521 1521 1521 1522 1523 1523 1524 1524 1524 1525 1525 1526 1526 1526 1526 1526 1527 1526 1526 1526 1526 1525 1525 1525 1525 1525 1525 1524 1523 1523 1522
1513 1513 1513 1514 1514 1514 1514 1515 1515 1516 1516 1517 1517 1517 1518 1518 1519 1519 1520 1520 1521 1521 1521 1522 1522 1522 1523 1523 1523 1523 1522 1522 1522 1522 1521 1521 1521 1521 1521 1520 1519 1519 1518
1509 1509 1510 1510 1510 1511 1511 1511 1512 1512 1513 1513 1514 1514 1514 1514 1515 1516 1516 1517 1517 1517 1517 1518 1518 1518 1518 1518 1518 1518 1518 1518 1518 1518 1518 1517 1517 1516 1516 1516 1515 1514 1513
1506 1506 1506 1506 1506 1506 1507 1507 1508 1509 1509 1509 1510 1511 1511 1512 1512 1512 1513 1513 1514 1514 1514 1513 1513 1514 1514 1514 1514 1514 1514 1514 1514 1514 1513 1513 1513 1512 1512 1512 1511 1510 1509
1502 1502 1502 1502 1502 1502 1503 1503 1503 1504 1504 1505 1505 1506 1507 1507 1507 1508 1508 1509 1510 1510 1509 1509 1509 1509 1509 1510 1510 1510 1509 1510 1510 1510 1509 1509 1509 1508 1508 1507 1507 1506 1505
1499 1499 1499 1499 1499 1499 1499 1499 1500 1500 1499 1500 1501 1502 1502 1503 1503 1503 1504 1505 1505 1505 1504 1505 1505 1505 1505 1505 1505 1505 1505 1505 1505 1505 1505 1505 1504 1504 1503 1503 1502 1502 1501
1495 1495 1495 1495 1495 1495 1496 1496 1496 1496 1496 1496 1496 1497 1498 1498 1498 1499 1499 1499 1499 1499 1500 1500 1500 1500 1501 1501 1501 1501 1501 1500 1500 1500 1500 1500 1500 1500 1499 1498 1498 1498 1497
1492 1491 1491 1491 1491 1492 1492 1492 1492 1492 1492 1492 1492 1493 1493 1493 1493 1493 1494 1494 1494 1495 1495 1495 1496 1496 1496 1496 1496 1496 1496 1496 1495 1495 1495 1495 1495 1495 1494 1494 1493 1493 1493
1488 1488 1488 1487 1487 1488 1488 1488 1488 1488 1488 1488 1488 1488 1489 1489 1488 1489 1489 1489 1490 1490 1490 1491 1491 1491 1491 1491 1491 1491 1490 1490 1490 1490 1490 1490 1490 1490 1489 1489 1489 1489 1488
1484 1484 1484 1483 1483 1483 1483 1483 1483 1483 1483 1483 1483 1484 1484 1484 1484 1484 1484 1484 1485 1485 1486 1486 1486 1486 1486 1486 1486 1485 1485 1485 1485 1485 1485 1485 1485 1485 1484 1484 1484 1484 1484
1480 1480 1480 1479 1479 1479 1479 1479 1479 1478 1478 1478 1478 1478 1478 1478 1478 1478 1479 1479 1480 1480 1480 1480 1480 1480 1480 1480 1480 1480 1480 1480 1480 1480 1480 1480 1480 1479 1479 1479 1479 1479 1479
1475 1475 1475 1475 1474 1474 1474 1473 1473 1473 1473 1473 1473 1473 1472 1472 1472 1473 1473 1473 1474 1474 1474 1475 1475 1474 1475 1475 1475 1475 1475 1475 1475 1475 1475 1475 1475 1474 1474 1474 1474 1474 1474
1471 1471 1470 1470 1469 1469 1468 1468 1468 1468 1467 1467 1467 1467 1467 1467 1467 1467 1467 1468 1468 1468 1468 1469 1469 1469 1469 1469 1469 1469 1469 1470 1470 1470 1469 1469 1469 1469 1469 1469 1469 1469 1470
1466 1466 1466 1465 1465 1464 1463 1462 1462 1462 1461 1461 1461 1461 1461 1462 1462 1462 1462 1462 1462 1462 1462 1463 1463 1463 1463 1463 1464 1464 1464 1464 1464 1464 1464 1464 1464 1464 1464 1464 1464 1465 1465